Flag for France Weather past 2 weeks in Bastia, Corsica, France

Now
63 °F

Scattered clouds.


Feels Like: 63 °F
Forecast: 48 / 60 °F
Wind: 8 mph from Southeast

Location: Bastia Airport

Current Time: Mar 3, 2015 at 2:47:58 PM

Latest Report: Mar 3, 2015 at 2:00 PM


Visibility: N/A

Pressure: 30.12 "Hg

Humidity: 68%

Dew point: 52 °F

Location of BastiaLocation

Historic Weather in Bastia — Graph

°F

Bastia temperature yesterday

Maximum temperature yesterday: 77 °F (at 2:09 PM)
Minimum temperature yesterday: 45 °F (at 12:00 AM)
Average temperature yesterday: 61 °F

Past Weeks' High & Low Weather Summary

 TemperatureHumidityPressure
High77 °F (Mar 2, 2:09 PM)100% (Feb 21, 9:00 PM)30.51 "Hg (Feb 21, 9:00 PM)
Low37 °F (Feb 19, 3:30 AM)8% (Mar 3, 12:00 AM)29.39 "Hg (Feb 22, 3:30 AM)
Average51 °F72%29.95 "Hg
* Reported Feb 16 1:00 PM — Mar 3 1:30 PM, Bastia, Weather by CustomWeather, © 2015

Note: Actual official high and low records may vary slightly from our data, if they occured in-between our weather recording intervals... More about our weather records

Advertising

Bastia weather history for previous 24 hours

 ConditionsComfort  
Time TempWeatherWind HumidityBarometerVisibility
1:30 PM
Tue, Mar 3
63 °FScattered clouds.9 mph64%30.12 "HgN/A
1:00 PM63 °FScattered clouds.10 mph68%30.12 "HgN/A
12:30 PM63 °FScattered clouds.12 mph73%30.15 "HgN/A
12:00 PM63 °FPartly sunny.13 mph64%30.12 "HgN/A
11:30 AM63 °FPartly sunny.13 mph68%30.12 "HgN/A
11:00 AM63 °FPartly sunny.10 mph59%30.12 "HgN/A
10:30 AM63 °FPartly sunny.9 mph64%30.12 "HgN/A
10:14 AM64 °FPartly sunny.7 mph60%30.12 "HgN/A
9:30 AM63 °FPartly sunny.6 mph42%30.09 "HgN/A
9:00 AM61 °FPartly sunny.5 mph48%30.09 "HgN/A
8:30 AM57 °FPartly sunny.3 mph59%30.07 "HgN/A
8:00 AM52 °FPartly sunny.3 mph67%30.07 "HgN/A
7:30 AM50 °FPartly sunny.5 mph67%30.04 "HgN/A
7:00 AM50 °FScattered clouds.2 mph71%30.04 "HgN/A
6:30 AM52 °FPassing clouds.7 mph62%30.04 "HgN/A
6:00 AM50 °FPassing clouds.2 mph67%30.04 "HgN/A
5:30 AM52 °FPassing clouds.3 mph67%30.01 "HgN/A
5:00 AM52 °FPassing clouds.5 mph58%30.01 "HgN/A
4:36 AM57 °FPassing clouds.2 mph44%30.01 "HgN/A
3:30 AM57 °FPassing clouds.2 mph48%29.98 "HgN/A
3:00 AM57 °FClear.2 mph48%29.98 "HgN/A
2:30 AM59 °FClear.5 mph55%29.98 "HgN/A
2:00 AM63 °FClear.3 mph42%29.98 "HgN/A
1:30 AM64 °FClear.8 mph37%29.98 "HgN/A
1:00 AM64 °FClear.9 mph40%29.95 "HgN/A
12:30 AM72 °FClear.18 mph9%29.95 "HgN/A
12:00 AM72 °FPassing clouds.30 mph8%29.89 "HgN/A
11:30 PM
Mon, Mar 2
72 °FPassing clouds.36 mph11%29.89 "HgN/A
11:00 PM72 °FPassing clouds.35 mph10%29.86 "HgN/A
10:30 PM72 °FPassing clouds.36 mph13%29.86 "HgN/A
10:00 PM72 °FPassing clouds.32 mph13%29.86 "HgN/A
9:30 PM73 °FPassing clouds.37 mph14%29.86 "HgN/A
9:00 PM73 °FPassing clouds.36 mph16%29.83 "HgN/A
8:30 PM72 °FPassing clouds.35 mph22%29.83 "HgN/A
8:00 PM73 °FPassing clouds.44 mph20%29.80 "HgN/A
7:30 PM73 °FPassing clouds.40 mph27%29.80 "HgN/A
7:00 PM72 °FPassing clouds.39 mph29%29.80 "HgN/A
6:30 PM72 °FPassing clouds.31 mph31%29.80 "HgN/A
6:00 PM73 °FPartly sunny.40 mph27%29.80 "HgN/A
5:30 PM73 °FPartly sunny.36 mph29%29.80 "HgN/A
5:00 PM73 °FPartly sunny.37 mph29%29.80 "HgN/A
4:30 PM75 °FPartly sunny.33 mph25%29.80 "HgN/A
4:00 PM75 °FPartly sunny.29 mph27%29.80 "HgN/A
3:30 PM77 °FPartly sunny.28 mph28%29.80 "HgN/A
3:00 PM75 °FPartly sunny.25 mph31%29.80 "HgN/A
2:30 PM75 °FPartly sunny.26 mph34%29.83 "HgN/A
2:09 PM77 °FPartly sunny.22 mph32%29.83 "HgN/A
Weather by CustomWeather, © 2015

See weather overviewHow to use our weather pages